Home   Weather   Krems   Past weeks

Flag for Austria Past Weather in Krems, Lower Austria, Austria — Yesterday and Last 2 Weeks

55 °F

Partly sunny.

Feels Like: 55 °F
Forecast: 42 / 57 °F
Wind: 5 mph from Southwest

Location: Tulln Airport

Current Time: Oct 26, 2016 at 11:33:49 AM

Latest Report: Oct 26, 2016 at 10:50 AM

Visibility: 11 mi

Pressure: 30.33 "Hg

Humidity: 77%

Dew Point: 48 °F

Location of KremsLocation

Past Weather in Krems — Graph


Krems Temperature Yesterday

Maximum temperature yesterday: 63 °F (at 2:50 PM)
Minimum temperature yesterday: 50 °F (at 5:50 AM)
Average temperature yesterday: 55 °F

High & Low Weather Summary for the Past Weeks

High66 °F (Oct 15, 2:50 PM)100% (Oct 12, 11:50 AM)30.33 "Hg (Oct 12, 11:50 AM)
Low36 °F (Oct 22, 5:50 AM)55% (Oct 22, 2:50 PM)29.83 "Hg (Oct 15, 6:50 AM)
Average50 °F86%30.08 "Hg
* Reported Oct 11 10:50 AM — Oct 26 9:50 AM, Krems, Weather by CustomWeather, © 2016

Note: Actual official high and low records may vary slightly from our data, if they occured in-between our weather recording intervals... More about our weather records


Krems Weather History for the Previous 24 Hours

Scroll right to see more
Time TempWeatherWind HumidityBarometerVisibility
9:50 AM
Wed, Oct 26
54 °FPartly sunny.5 mph88%30.33 "Hg9 mi
8:50 AM52 °FPartly sunny.5 mph94%30.33 "Hg7 mi
7:50 AM52 °FPartly sunny.3 mph94%30.30 "Hg7 mi
6:50 AM52 °FPassing clouds.5 mph88%30.27 "Hg7 mi
5:50 AM54 °FPassing clouds.5 mph82%30.24 "Hg7 mi
10:50 PM
Tue, Oct 25
55 °FPassing clouds.6 mph100%30.21 "Hg6 mi
9:50 PM55 °FLight rain. Overcast.3 mph100%30.18 "Hg7 mi
8:50 PM57 °FLight rain. Partly cloudy.6 mph94%30.18 "Hg11 mi
7:50 PM57 °FPassing clouds.6 mph88%30.18 "Hg12 mi
6:50 PM57 °FPassing clouds.3 mph88%30.15 "Hg12 mi
5:50 PM57 °FPartly cloudy.No wind94%30.15 "Hg12 mi
4:50 PM61 °FLight rain. Broken clouds.8 mph83%30.15 "Hg19 mi
2:50 PM63 °FBroken clouds.12 mph73%30.15 "Hg37 mi
1:50 PM59 °FBroken clouds.7 mph82%30.15 "Hg37 mi
12:50 PM59 °FSprinkles. Broken clouds.15 mph82%30.15 "Hg12 mi
11:50 AM55 °FPartly sunny.9 mph82%30.18 "Hg12 mi
Weather by CustomWeather, © 2016

See weather overviewHow to use our weather pages